Overview Statistics Trail Chart Weather Telemetry Raw packets
 

This is the latest recevied weather packets stored in our database for station/object HA9OZD-18. If no packets are shown the sender has not sent any weather packets the latest 10 day(s).

<< 4 5 6 7 8 9 10 >>
Time Temp. Humidity Pressure Rain* Wind** Luminosity Snow
1788237897 16.11° C 54% 1016.5 hPa - - - -
1788234296 16.11° C 59% 1016.4 hPa - - - -
1788230696 16.67° C 65% 1016.5 hPa - - - -
1788227095 16.67° C 66% 1014.8 hPa - - - -
1788223495 16.67° C 61% 1014.5 hPa - - - -
1788219895 18.33° C 53% 1014.7 hPa - - - -
1788216294 19.44° C 53% 1015.5 hPa - - - -
1788212694 20° C 49% 1015.7 hPa - - - -
1788209093 20.56° C 47% 1015.8 hPa - - - -
1788205493 20.56° C 45% 1015.5 hPa - - - -
1788201894 21.11° C 38% 1015.4 hPa - - - -
1788198294 22.78° C 29% 1015.3 hPa - - - -
1788194694 22.78° C 28% 1015.3 hPa - - - -
1788191094 24.44° C 26% 1015.6 hPa - - - -
1788187493 26.11° C 25% 1015.9 hPa - - - -
1788183893 26.67° C 24% 1016.2 hPa - - - -
1788180293 32.22° C 18% 1016.6 hPa - - - -
1788176692 27.78° C 25% 1016.8 hPa - - - -
1788173100 26.11° C 28% 1017.4 hPa - - - -
1788173092 26.11° C 28% 1017.4 hPa - - - -
1788169492 25° C 32% 1017.5 hPa - - - -
1788165892 23.89° C 35% 1017.8 hPa - - - -
1788162291 22.22° C 38% 1017.7 hPa - - - -
1788158691 20.56° C 42% 1017.5 hPa - - - -
1788155091 18.89° C 45% 1017.7 hPa - - - -

* Rain since midnight (hover to see other rain measurements)
** Current wind speed in m/s (hover to see current wind gust speed)